Time,TemperatureF,DewpointF,PressureIn,WindDirection,WindDirectionDegrees,WindSpeedMPH,WindSpeedGustMPH,Humidity,HourlyPrecipIn,Conditions,Clouds,dailyrainin,SoftwareType,DateUTC
2013-01-14 00:03:00,-2.0,-17.7,25.66,North,0,0.0,0.0,46,0.00,,---,0.00,VWS V13.01,2013-01-14 07:03:00,
2013-01-14 00:08:00,-2.0,-17.7,25.66,North,0,0.0,0.0,46,0.00,,---,0.00,VWS V13.01,2013-01-14 07:08:00,
2013-01-14 00:13:00,-2.2,-17.9,25.66,North,0,0.0,0.0,46,0.00,,---,0.00,VWS V13.01,2013-01-14 07:13:00,
2013-01-14 00:18:00,-2.6,-18.2,25.66,North,0,0.0,0.0,46,0.00,,---,0.00,VWS V13.01,2013-01-14 07:18:00,
2013-01-14 00:23:00,-1.8,-17.6,25.63,North,0,0.0,0.0,46,0.00,,---,0.00,VWS V13.01,2013-01-14 07:23:00,
2013-01-14 00:28:00,-0.9,-16.7,25.63,North,0,0.0,0.0,46,0.00,,---,0.00,VWS V13.01,2013-01-14 07:28:00,
2013-01-14 00:33:00,-0.8,-16.6,25.63,North,0,0.0,0.0,46,0.00,,---,0.00,VWS V13.01,2013-01-14 07:33:00,
2013-01-14 00:38:00,-0.8,-16.6,25.66,North,0,0.0,0.0,46,0.00,,---,0.00,VWS V13.01,2013-01-14 07:38:00,
2013-01-14 00:43:00,-0.9,-16.7,25.66,North,0,0.0,0.0,46,0.00,,---,0.00,VWS V13.01,2013-01-14 07:43:00,
2013-01-14 00:48:00,-0.8,-16.6,25.66,North,0,0.0,0.0,46,0.00,,---,0.00,VWS V13.01,2013-01-14 07:48:00,
2013-01-14 00:53:00,-1.1,-16.9,25.66,North,0,0.0,0.0,46,0.00,,---,0.00,VWS V13.01,2013-01-14 07:53:00,
2013-01-14 00:58:00,-0.6,-16.4,25.66,North,0,0.0,0.0,46,0.00,,---,0.00,VWS V13.01,2013-01-14 07:58:00,
2013-01-14 01:03:00,-0.6,-16.4,25.66,North,0,0.0,0.0,46,0.00,,---,0.00,VWS V13.01,2013-01-14 08:03:00,
2013-01-14 01:08:00,-1.1,-16.9,25.63,North,0,0.0,0.0,46,0.00,,---,0.00,VWS V13.01,2013-01-14 08:08:00,
2013-01-14 01:13:00,-1.3,-17.1,25.63,North,0,0.0,0.0,46,0.00,,---,0.00,VWS V13.01,2013-01-14 08:13:00,
2013-01-14 01:18:00,-1.7,-17.4,25.63,North,0,0.0,0.0,46,0.00,,---,0.00,VWS V13.01,2013-01-14 08:18:00,
2013-01-14 01:23:00,-2.2,-17.9,25.63,North,0,0.0,0.0,46,0.00,,---,0.00,VWS V13.01,2013-01-14 08:23:00,
2013-01-14 01:28:00,-1.8,-17.6,25.63,North,0,0.0,0.0,46,0.00,,---,0.00,VWS V13.01,2013-01-14 08:28:00,
2013-01-14 01:33:00,-0.8,-16.6,25.63,North,0,0.0,0.0,46,0.00,,---,0.00,VWS V13.01,2013-01-14 08:33:00,
2013-01-14 01:38:00,-0.4,-16.2,25.63,North,0,0.0,0.0,46,0.00,,---,0.00,VWS V13.01,2013-01-14 08:38:00,
2013-01-14 01:43:00,0.0,-15.9,25.63,North,0,0.0,0.0,46,0.00,,---,0.00,VWS V13.01,2013-01-14 08:43:00,
2013-01-14 01:48:00,0.1,-15.7,25.63,North,0,0.0,0.0,46,0.00,,---,0.00,VWS V13.01,2013-01-14 08:48:00,
2013-01-14 01:53:00,0.1,-15.7,25.66,North,0,0.0,0.0,46,0.00,,---,0.00,VWS V13.01,2013-01-14 08:53:00,
2013-01-14 01:58:00,0.3,-15.6,25.66,North,0,0.0,0.0,46,0.00,,---,0.00,VWS V13.01,2013-01-14 08:58:00,
2013-01-14 02:03:00,0.7,-15.2,25.66,North,0,0.0,0.0,46,0.00,,---,0.00,VWS V13.01,2013-01-14 09:03:00,
2013-01-14 02:08:00,0.7,-15.2,25.66,North,0,0.0,0.0,46,0.00,,---,0.00,VWS V13.01,2013-01-14 09:08:00,
2013-01-14 02:13:00,0.3,-15.6,25.66,North,0,0.0,0.0,46,0.00,,---,0.00,VWS V13.01,2013-01-14 09:13:00,
2013-01-14 02:18:00,-0.4,-16.2,25.66,North,0,0.0,0.0,46,0.00,,---,0.00,VWS V13.01,2013-01-14 09:18:00,
2013-01-14 02:23:00,-0.2,-16.1,25.66,North,0,0.0,0.0,46,0.00,,---,0.00,VWS V13.01,2013-01-14 09:23:00,
2013-01-14 02:28:00,-0.2,-16.1,25.66,North,0,0.0,0.0,46,0.00,,---,0.00,VWS V13.01,2013-01-14 09:28:00,
2013-01-14 02:33:00,-1.1,-16.9,25.66,North,0,0.0,0.0,46,0.00,,---,0.00,VWS V13.01,2013-01-14 09:33:00,
2013-01-14 02:38:00,-1.3,-17.1,25.66,North,0,0.0,0.0,46,0.00,,---,0.00,VWS V13.01,2013-01-14 09:38:00,
2013-01-14 02:43:00,-2.2,-17.9,25.66,North,0,0.0,0.0,46,0.00,,---,0.00,VWS V13.01,2013-01-14 09:43:00,
2013-01-14 02:48:00,-2.9,-18.5,25.66,North,0,0.0,0.0,46,0.00,,---,0.00,VWS V13.01,2013-01-14 09:48:00,
2013-01-14 02:53:00,-3.3,-18.9,25.66,North,0,0.0,0.0,46,0.00,,---,0.00,VWS V13.01,2013-01-14 09:53:00,
2013-01-14 02:58:00,-3.1,-18.7,25.66,North,0,0.0,0.0,46,0.00,,---,0.00,VWS V13.01,2013-01-14 09:58:00,
2013-01-14 03:03:00,-2.6,-18.2,25.66,North,0,0.0,0.0,46,0.00,,---,0.00,VWS V13.01,2013-01-14 10:03:00,
2013-01-14 03:08:00,-2.4,-18.0,25.66,North,0,0.0,0.0,46,0.00,,---,0.00,VWS V13.01,2013-01-14 10:08:00,
2013-01-14 03:13:00,-1.5,-17.2,25.66,North,0,0.0,0.0,46,0.00,,---,0.00,VWS V13.01,2013-01-14 10:13:00,
2013-01-14 03:18:00,-0.8,-16.6,25.66,North,0,0.0,0.0,46,0.00,,---,0.00,VWS V13.01,2013-01-14 10:18:00,
2013-01-14 03:23:00,-0.6,-16.4,25.66,North,0,0.0,0.0,46,0.00,,---,0.00,VWS V13.01,2013-01-14 10:23:00,
2013-01-14 03:28:00,0.0,-15.9,25.66,North,0,0.0,0.0,46,0.00,,---,0.00,VWS V13.01,2013-01-14 10:28:00,
2013-01-14 03:33:00,0.3,-15.6,25.66,North,0,0.0,0.0,46,0.00,,---,0.00,VWS V13.01,2013-01-14 10:33:00,
2013-01-14 03:38:00,0.7,-15.2,25.66,North,0,0.0,0.0,46,0.00,,---,0.00,VWS V13.01,2013-01-14 10:38:00,
2013-01-14 03:43:00,1.0,-14.9,25.66,North,0,0.0,0.0,46,0.00,,---,0.00,VWS V13.01,2013-01-14 10:43:00,
2013-01-14 03:48:00,2.1,-13.9,25.66,North,0,0.0,0.0,46,0.00,,---,0.00,VWS V13.01,2013-01-14 10:48:00,
2013-01-14 03:53:00,2.7,-13.4,25.63,North,0,0.0,0.0,46,0.00,,---,0.00,VWS V13.01,2013-01-14 10:53:00,
2013-01-14 03:58:00,3.2,-12.9,25.63,North,0,0.0,0.0,46,0.00,,---,0.00,VWS V13.01,2013-01-14 10:58:00,
2013-01-14 04:03:00,3.6,-12.6,25.63,North,0,0.0,0.0,46,0.00,,---,0.00,VWS V13.01,2013-01-14 11:03:00,
2013-01-14 04:08:00,4.1,-12.1,25.63,North,0,0.0,0.0,46,0.00,,---,0.00,VWS V13.01,2013-01-14 11:08:00,
2013-01-14 04:13:00,4.6,-11.6,25.63,North,0,0.0,0.0,46,0.00,,---,0.00,VWS V13.01,2013-01-14 11:13:00,
2013-01-14 04:18:00,5.0,-11.2,25.63,North,0,0.0,0.0,46,0.00,,---,0.00,VWS V13.01,2013-01-14 11:18:00,
2013-01-14 04:23:00,5.4,-10.9,25.63,North,0,0.0,0.0,46,0.00,,---,0.00,VWS V13.01,2013-01-14 11:23:00,
2013-01-14 04:28:00,5.5,-10.8,25.63,North,0,0.0,0.0,46,0.00,,---,0.00,VWS V13.01,2013-01-14 11:28:00,
2013-01-14 04:33:00,5.4,-10.9,25.63,North,0,0.0,0.0,46,0.00,,---,0.00,VWS V13.01,2013-01-14 11:33:00,
2013-01-14 04:38:00,5.4,-10.9,25.63,North,0,0.0,0.0,46,0.00,,---,0.00,VWS V13.01,2013-01-14 11:38:00,
2013-01-14 04:43:00,5.2,-11.1,25.63,North,0,0.0,0.0,46,0.00,,---,0.00,VWS V13.01,2013-01-14 11:43:00,
2013-01-14 04:48:00,5.4,-10.9,25.63,North,0,0.0,0.0,46,0.00,,---,0.00,VWS V13.01,2013-01-14 11:48:00,
2013-01-14 04:53:00,5.0,-11.2,25.63,North,0,0.0,0.0,46,0.00,,---,0.00,VWS V13.01,2013-01-14 11:53:00,
2013-01-14 04:58:00,4.6,-11.6,25.63,North,0,0.0,0.0,46,0.00,,---,0.00,VWS V13.01,2013-01-14 11:58:00,
2013-01-14 05:03:00,4.5,-11.7,25.63,North,0,0.0,0.0,46,0.00,,---,0.00,VWS V13.01,2013-01-14 12:03:00,
2013-01-14 05:08:00,4.1,-12.1,25.63,North,0,0.0,0.0,46,0.00,,---,0.00,VWS V13.01,2013-01-14 12:08:00,
2013-01-14 05:13:00,3.9,-12.2,25.63,North,0,0.0,0.0,46,0.00,,---,0.00,VWS V13.01,2013-01-14 12:13:00,
2013-01-14 05:18:00,3.6,-12.6,25.63,North,0,0.0,0.0,46,0.00,,---,0.00,VWS V13.01,2013-01-14 12:18:00,
2013-01-14 05:23:00,3.2,-12.9,25.63,North,0,0.0,0.0,46,0.00,,---,0.00,VWS V13.01,2013-01-14 12:23:00,
2013-01-14 05:28:00,3.4,-12.7,25.63,North,0,0.0,0.0,46,0.00,,---,0.00,VWS V13.01,2013-01-14 12:28:00,
2013-01-14 05:33:00,3.2,-12.9,25.63,North,0,0.0,0.0,46,0.00,,---,0.00,VWS V13.01,2013-01-14 12:33:00,
2013-01-14 05:38:00,3.2,-12.9,25.66,North,0,0.0,0.0,46,0.00,,---,0.00,VWS V13.01,2013-01-14 12:38:00,
2013-01-14 05:43:00,3.0,-13.1,25.66,North,0,0.0,0.0,46,0.00,,---,0.00,VWS V13.01,2013-01-14 12:43:00,
2013-01-14 05:48:00,3.2,-12.9,25.66,North,0,0.0,0.0,46,0.00,,---,0.00,VWS V13.01,2013-01-14 12:48:00,
2013-01-14 05:53:00,3.0,-13.1,25.66,North,0,0.0,0.0,46,0.00,,---,0.00,VWS V13.01,2013-01-14 12:53:00,
2013-01-14 05:58:00,3.0,-13.1,25.66,North,0,0.0,0.0,46,0.00,,---,0.00,VWS V13.01,2013-01-14 12:58:00,
2013-01-14 06:03:00,3.4,-12.7,25.66,North,0,0.0,0.0,46,0.00,,---,0.00,VWS V13.01,2013-01-14 13:03:00,
2013-01-14 06:08:00,4.1,-12.1,25.66,North,0,0.0,0.0,46,0.00,,---,0.00,VWS V13.01,2013-01-14 13:08:00,
2013-01-14 06:13:00,3.7,-12.4,25.66,North,0,0.0,0.0,46,0.00,,---,0.00,VWS V13.01,2013-01-14 13:13:00,
2013-01-14 06:18:00,4.5,-11.7,25.66,North,0,0.0,0.0,46,0.00,,---,0.00,VWS V13.01,2013-01-14 13:18:00,
2013-01-14 06:23:00,4.6,-11.6,25.66,North,0,0.0,0.0,46,0.00,,---,0.00,VWS V13.01,2013-01-14 13:23:00,
2013-01-14 06:28:00,4.5,-11.7,25.66,North,0,0.0,0.0,46,0.00,,---,0.00,VWS V13.01,2013-01-14 13:28:00,
2013-01-14 06:33:00,4.3,-11.9,25.66,North,0,0.0,0.0,46,0.00,,---,0.00,VWS V13.01,2013-01-14 13:33:00,
2013-01-14 06:38:00,4.3,-11.9,25.66,North,0,0.0,0.0,46,0.00,,---,0.00,VWS V13.01,2013-01-14 13:38:00,
2013-01-14 06:43:00,4.5,-11.7,25.66,North,0,0.0,0.0,46,0.00,,---,0.00,VWS V13.01,2013-01-14 13:43:00,
2013-01-14 06:48:00,4.3,-11.9,25.66,North,0,0.0,0.0,46,0.00,,---,0.00,VWS V13.01,2013-01-14 13:48:00,
2013-01-14 06:53:00,4.1,-12.1,25.66,North,0,0.0,0.0,46,0.00,,---,0.00,VWS V13.01,2013-01-14 13:53:00,
2013-01-14 06:58:00,4.1,-12.1,25.66,North,0,0.0,0.0,46,0.00,,---,0.00,VWS V13.01,2013-01-14 13:58:00,
2013-01-14 07:03:00,3.7,-12.4,25.66,North,0,0.0,0.0,46,0.00,,---,0.00,VWS V13.01,2013-01-14 14:03:00,
2013-01-14 07:08:00,3.6,-12.6,25.66,North,0,0.0,0.0,46,0.00,,---,0.00,VWS V13.01,2013-01-14 14:08:00,
2013-01-14 07:13:00,3.2,-12.9,25.66,North,0,0.0,0.0,46,0.00,,---,0.00,VWS V13.01,2013-01-14 14:13:00,
2013-01-14 07:18:00,3.9,-12.2,25.66,North,0,0.0,0.0,46,0.00,,---,0.00,VWS V13.01,2013-01-14 14:18:00,
2013-01-14 07:23:00,5.4,-10.9,25.66,North,0,0.0,0.0,46,0.00,,---,0.00,VWS V13.01,2013-01-14 14:23:00,
2013-01-14 07:28:00,5.5,-10.8,25.66,North,0,0.0,0.0,46,0.00,,---,0.00,VWS V13.01,2013-01-14 14:28:00,
2013-01-14 07:33:00,5.9,-10.4,25.66,North,0,0.0,0.0,46,0.00,,---,0.00,VWS V13.01,2013-01-14 14:33:00,
2013-01-14 07:38:00,6.3,-10.1,25.66,North,0,0.0,0.0,46,0.00,,---,0.00,VWS V13.01,2013-01-14 14:38:00,
2013-01-14 07:43:00,6.4,-9.9,25.66,North,0,0.0,0.0,46,0.00,,---,0.00,VWS V13.01,2013-01-14 14:43:00,
2013-01-14 07:48:00,6.4,-9.9,25.66,North,0,0.0,0.0,46,0.00,,---,0.00,VWS V13.01,2013-01-14 14:48:00,
2013-01-14 07:53:00,6.8,-9.6,25.66,North,0,0.0,0.0,46,0.00,,---,0.00,VWS V13.01,2013-01-14 14:53:00,
2013-01-14 07:58:00,6.8,-9.6,25.66,North,0,0.0,0.0,46,0.00,,---,0.00,VWS V13.01,2013-01-14 14:58:00,
2013-01-14 08:03:00,6.6,-9.8,25.66,North,0,0.0,0.0,46,0.00,,---,0.00,VWS V13.01,2013-01-14 15:03:00,
2013-01-14 08:08:00,7.2,-9.3,25.66,North,0,0.0,0.0,46,0.00,,---,0.00,VWS V13.01,2013-01-14 15:08:00,
2013-01-14 08:13:00,8.2,-8.3,25.66,North,0,0.0,0.0,46,0.00,,---,0.00,VWS V13.01,2013-01-14 15:13:00,
2013-01-14 08:18:00,8.6,-7.9,25.66,North,0,0.0,0.0,46,0.00,,---,0.00,VWS V13.01,2013-01-14 15:18:00,
2013-01-14 08:23:00,8.8,-7.8,25.66,North,0,0.0,0.0,46,0.00,,---,0.00,VWS V13.01,2013-01-14 15:23:00,
2013-01-14 08:28:00,9.5,-7.1,25.66,North,0,0.0,0.0,46,0.00,,---,0.00,VWS V13.01,2013-01-14 15:28:00,
2013-01-14 08:33:00,10.9,-5.8,25.66,North,0,0.0,0.0,46,0.00,,---,0.00,VWS V13.01,2013-01-14 15:33:00,
2013-01-14 08:38:00,10.8,-5.9,25.66,North,0,0.0,0.0,46,0.00,,---,0.00,VWS V13.01,2013-01-14 15:38:00,
2013-01-14 08:43:00,10.2,-6.4,25.66,North,0,0.0,0.0,46,0.00,,---,0.00,VWS V13.01,2013-01-14 15:43:00,
2013-01-14 08:48:00,10.2,-6.4,25.66,North,0,0.0,0.0,46,0.00,,---,0.00,VWS V13.01,2013-01-14 15:48:00,
2013-01-14 08:53:00,10.9,-5.8,25.66,North,0,0.0,0.0,46,0.00,,---,0.00,VWS V13.01,2013-01-14 15:53:00,
2013-01-14 08:58:00,11.8,-4.9,25.66,North,0,0.0,0.0,46,0.00,,---,0.00,VWS V13.01,2013-01-14 15:58:00,
2013-01-14 09:03:00,11.7,-5.1,25.66,North,0,0.0,0.0,46,0.00,,---,0.00,VWS V13.01,2013-01-14 16:03:00,
2013-01-14 09:08:00,11.8,-4.9,25.66,North,0,0.0,0.0,46,0.00,,---,0.00,VWS V13.01,2013-01-14 16:08:00,
2013-01-14 09:13:00,12.7,-4.1,25.66,North,0,0.0,0.0,46,0.00,,---,0.00,VWS V13.01,2013-01-14 16:13:00,
2013-01-14 09:18:00,13.3,-3.6,25.66,North,0,0.0,0.0,46,0.00,,---,0.00,VWS V13.01,2013-01-14 16:18:00,
2013-01-14 09:23:00,13.6,-3.3,25.66,North,0,0.0,0.0,46,0.00,,---,0.00,VWS V13.01,2013-01-14 16:23:00,
2013-01-14 09:28:00,13.8,-3.6,25.66,North,0,0.0,0.0,45,0.00,,---,0.00,VWS V13.01,2013-01-14 16:28:00,
2013-01-14 09:33:00,14.2,-3.7,25.66,North,0,0.0,0.0,44,0.00,,---,0.00,VWS V13.01,2013-01-14 16:33:00,
2013-01-14 09:38:00,14.4,-3.6,25.66,North,0,0.0,0.0,44,0.00,,---,0.00,VWS V13.01,2013-01-14 16:38:00,
2013-01-14 09:43:00,14.5,-3.4,25.66,North,0,0.0,0.0,44,0.00,,---,0.00,VWS V13.01,2013-01-14 16:43:00,
2013-01-14 09:48:00,14.9,-3.1,25.66,North,0,0.0,0.0,44,0.00,,---,0.00,VWS V13.01,2013-01-14 16:48:00,
2013-01-14 09:53:00,15.1,-2.9,25.66,North,0,0.0,0.0,44,0.00,,---,0.00,VWS V13.01,2013-01-14 16:53:00,
2013-01-14 09:58:00,14.9,-3.1,25.66,North,0,0.0,0.0,44,0.00,,---,0.00,VWS V13.01,2013-01-14 16:58:00,
2013-01-14 10:03:00,15.1,-2.9,25.66,North,0,0.0,0.0,44,0.00,,---,0.00,VWS V13.01,2013-01-14 17:03:00,
2013-01-14 10:08:00,15.4,-2.6,25.66,North,0,0.0,0.0,44,0.00,,---,0.00,VWS V13.01,2013-01-14 17:08:00,
2013-01-14 10:13:00,15.8,-2.2,25.66,North,0,0.0,0.0,44,0.00,,---,0.00,VWS V13.01,2013-01-14 17:13:00,
2013-01-14 10:18:00,15.8,-2.7,25.66,North,0,0.0,0.0,43,0.00,,---,0.00,VWS V13.01,2013-01-14 17:18:00,
2013-01-14 10:23:00,16.0,-2.6,25.66,North,0,0.0,0.0,43,0.00,,---,0.00,VWS V13.01,2013-01-14 17:23:00,
2013-01-14 10:28:00,16.2,-2.9,25.66,North,0,0.0,0.0,42,0.00,,---,0.00,VWS V13.01,2013-01-14 17:28:00,
2013-01-14 10:33:00,16.5,-2.6,25.66,North,0,0.0,0.0,42,0.00,,---,0.00,VWS V13.01,2013-01-14 17:33:00,
2013-01-14 10:38:00,16.7,-2.4,25.66,North,0,0.0,0.0,42,0.00,,---,0.00,VWS V13.01,2013-01-14 17:38:00,
2013-01-14 10:43:00,16.9,-2.2,25.66,North,0,0.0,0.0,42,0.00,,---,0.00,VWS V13.01,2013-01-14 17:43:00,
2013-01-14 10:48:00,16.9,-2.2,25.66,North,0,0.0,0.0,42,0.00,,---,0.00,VWS V13.01,2013-01-14 17:48:00,
2013-01-14 10:53:00,17.4,-2.2,25.66,North,0,0.0,0.0,41,0.00,,---,0.00,VWS V13.01,2013-01-14 17:53:00,
2013-01-14 10:58:00,17.6,-2.1,25.66,North,0,0.0,0.0,41,0.00,,---,0.00,VWS V13.01,2013-01-14 17:58:00,
2013-01-14 11:03:00,18.1,-2.1,25.66,North,0,0.0,0.0,40,0.00,,---,0.00,VWS V13.01,2013-01-14 18:03:00,
2013-01-14 11:08:00,18.5,-1.8,25.66,North,0,0.0,0.0,40,0.00,,---,0.00,VWS V13.01,2013-01-14 18:08:00,
2013-01-14 11:13:00,18.3,-2.5,25.66,North,0,0.0,0.0,39,0.00,,---,0.00,VWS V13.01,2013-01-14 18:13:00,
2013-01-14 11:18:00,17.2,-3.5,25.66,North,0,0.0,0.0,39,0.00,,---,0.00,VWS V13.01,2013-01-14 18:18:00,
2013-01-14 11:23:00,17.4,-3.3,25.63,North,0,0.0,0.0,39,0.00,,---,0.00,VWS V13.01,2013-01-14 18:23:00,
2013-01-14 11:28:00,17.8,-3.0,25.63,North,0,0.0,0.0,39,0.00,,---,0.00,VWS V13.01,2013-01-14 18:28:00,
2013-01-14 11:33:00,18.7,-2.2,25.63,North,0,0.0,0.0,39,0.00,,---,0.00,VWS V13.01,2013-01-14 18:33:00,
2013-01-14 11:38:00,19.4,-2.0,25.63,North,0,0.0,0.0,38,0.00,,---,0.00,VWS V13.01,2013-01-14 18:38:00,
2013-01-14 11:43:00,19.6,-2.5,25.63,North,0,0.0,0.0,37,0.00,,---,0.00,VWS V13.01,2013-01-14 18:43:00,
2013-01-14 11:48:00,19.9,-1.6,25.63,North,0,0.0,0.0,38,0.00,,---,0.00,VWS V13.01,2013-01-14 18:48:00,
2013-01-14 11:53:00,20.1,-2.0,25.63,North,0,0.0,0.0,37,0.00,,---,0.00,VWS V13.01,2013-01-14 18:53:00,
2013-01-14 11:58:00,19.0,-2.9,25.63,North,0,0.0,0.0,37,0.00,,---,0.00,VWS V13.01,2013-01-14 18:58:00,
2013-01-14 12:03:00,18.1,-3.7,25.63,North,0,0.0,0.0,37,0.00,,---,0.00,VWS V13.01,2013-01-14 19:03:00,
2013-01-14 12:09:00,18.0,-3.9,25.63,North,0,0.0,0.0,37,0.00,,---,0.00,VWS V13.01,2013-01-14 19:09:00,
2013-01-14 12:14:00,18.7,-2.7,25.63,North,0,0.0,0.0,38,0.00,,---,0.00,VWS V13.01,2013-01-14 19:14:00,
2013-01-14 12:19:00,18.7,-2.7,25.63,North,0,0.0,0.0,38,0.00,,---,0.00,VWS V13.01,2013-01-14 19:19:00,
2013-01-14 12:24:00,18.3,-3.6,25.63,North,0,0.0,0.0,37,0.00,,---,0.00,VWS V13.01,2013-01-14 19:24:00,
2013-01-14 12:29:00,17.8,-4.1,25.63,North,0,0.0,0.0,37,0.00,,---,0.00,VWS V13.01,2013-01-14 19:29:00,
2013-01-14 12:34:00,17.6,-3.7,25.63,North,0,0.0,0.0,38,0.00,,---,0.00,VWS V13.01,2013-01-14 19:34:00,
2013-01-14 12:39:00,17.6,-3.1,25.63,North,0,0.0,0.0,39,0.00,,---,0.00,VWS V13.01,2013-01-14 19:39:00,
2013-01-14 12:44:00,18.1,-2.6,25.63,North,0,0.0,0.0,39,0.00,,---,0.00,VWS V13.01,2013-01-14 19:44:00,
2013-01-14 12:49:00,18.0,-3.3,25.60,North,0,0.0,0.0,38,0.00,,---,0.00,VWS V13.01,2013-01-14 19:49:00,
2013-01-14 12:54:00,17.8,-3.5,25.60,North,0,0.0,0.0,38,0.00,,---,0.00,VWS V13.01,2013-01-14 19:54:00,
2013-01-14 12:59:00,17.6,-3.7,25.60,North,0,0.0,0.0,38,0.00,,---,0.00,VWS V13.01,2013-01-14 19:59:00,
2013-01-14 13:04:00,17.6,-3.1,25.60,North,0,0.0,0.0,39,0.00,,---,0.00,VWS V13.01,2013-01-14 20:04:00,
2013-01-14 13:09:00,17.8,-3.0,25.60,North,0,0.0,0.0,39,0.00,,---,0.00,VWS V13.01,2013-01-14 20:09:00,
2013-01-14 13:14:00,17.8,-4.1,25.60,North,0,0.0,0.0,37,0.00,,---,0.00,VWS V13.01,2013-01-14 20:14:00,
2013-01-14 13:19:00,18.1,-3.2,25.60,North,0,0.0,0.0,38,0.00,,---,0.00,VWS V13.01,2013-01-14 20:19:00,
2013-01-14 13:24:00,18.0,-3.9,25.60,North,0,0.0,0.0,37,0.00,,---,0.00,VWS V13.01,2013-01-14 20:24:00,
2013-01-14 13:29:00,18.0,-3.3,25.60,North,0,0.0,0.0,38,0.00,,---,0.00,VWS V13.01,2013-01-14 20:29:00,
2013-01-14 13:34:00,18.3,-3.0,25.60,North,0,0.0,0.0,38,0.00,,---,0.00,VWS V13.01,2013-01-14 20:34:00,
2013-01-14 13:39:00,18.5,-2.9,25.60,North,0,0.0,0.0,38,0.00,,---,0.00,VWS V13.01,2013-01-14 20:39:00,
2013-01-14 13:44:00,19.0,-2.4,25.60,North,0,0.0,0.0,38,0.00,,---,0.00,VWS V13.01,2013-01-14 20:44:00,
2013-01-14 13:49:00,19.4,-2.0,25.60,North,0,0.0,0.0,38,0.00,,---,0.00,VWS V13.01,2013-01-14 20:49:00,
2013-01-14 13:54:00,19.2,-2.2,25.60,North,0,0.0,0.0,38,0.00,,---,0.00,VWS V13.01,2013-01-14 20:54:00,
2013-01-14 13:59:00,18.5,-2.9,25.60,North,0,0.0,0.0,38,0.00,,---,0.00,VWS V13.01,2013-01-14 20:59:00,
2013-01-14 14:04:00,18.1,-3.2,25.60,North,0,0.0,0.0,38,0.00,,---,0.00,VWS V13.01,2013-01-14 21:04:00,
2013-01-14 14:09:00,17.8,-3.5,25.60,North,0,0.0,0.0,38,0.00,,---,0.00,VWS V13.01,2013-01-14 21:09:00,
2013-01-14 14:14:00,18.1,-3.2,25.60,North,0,0.0,0.0,38,0.00,,---,0.00,VWS V13.01,2013-01-14 21:14:00,
2013-01-14 14:19:00,19.0,-2.4,25.60,North,0,0.0,0.0,38,0.00,,---,0.00,VWS V13.01,2013-01-14 21:19:00,
2013-01-14 14:24:00,18.7,-3.3,25.60,North,0,0.0,0.0,37,0.00,,---,0.00,VWS V13.01,2013-01-14 21:24:00,
2013-01-14 14:29:00,18.1,-3.2,25.60,North,0,0.0,0.0,38,0.00,,---,0.00,VWS V13.01,2013-01-14 21:29:00,
2013-01-14 14:34:00,17.4,-3.8,25.60,North,0,0.0,0.0,38,0.00,,---,0.00,VWS V13.01,2013-01-14 21:34:00,
2013-01-14 14:39:00,17.4,-3.8,25.60,North,0,0.0,0.0,38,0.00,,---,0.00,VWS V13.01,2013-01-14 21:39:00,
2013-01-14 14:44:00,18.1,-3.2,25.60,North,0,0.0,0.0,38,0.00,,---,0.00,VWS V13.01,2013-01-14 21:44:00,
2013-01-14 14:49:00,19.2,-2.2,25.63,North,0,0.0,0.0,38,0.00,,---,0.00,VWS V13.01,2013-01-14 21:49:00,
2013-01-14 14:54:00,18.5,-3.4,25.63,North,0,0.0,0.0,37,0.00,,---,0.00,VWS V13.01,2013-01-14 21:54:00,
2013-01-14 14:59:00,17.2,-4.0,25.63,North,0,0.0,0.0,38,0.00,,---,0.00,VWS V13.01,2013-01-14 21:59:00,
2013-01-14 15:04:00,17.1,-4.2,25.63,North,0,0.0,0.0,38,0.00,,---,0.00,VWS V13.01,2013-01-14 22:04:00,
2013-01-14 15:09:00,16.9,-4.3,25.63,North,0,0.0,0.0,38,0.00,,---,0.00,VWS V13.01,2013-01-14 22:09:00,
2013-01-14 15:14:00,16.3,-4.8,25.63,North,0,0.0,0.0,38,0.00,,---,0.00,VWS V13.01,2013-01-14 22:14:00,
2013-01-14 15:19:00,16.0,-5.1,25.60,North,0,0.0,0.0,38,0.00,,---,0.00,VWS V13.01,2013-01-14 22:19:00,
2013-01-14 15:24:00,15.8,-4.8,25.60,North,0,0.0,0.0,39,0.00,,---,0.00,VWS V13.01,2013-01-14 22:24:00,
2013-01-14 15:29:00,15.4,-5.1,25.60,North,0,0.0,0.0,39,0.00,,---,0.00,VWS V13.01,2013-01-14 22:29:00,
2013-01-14 15:34:00,15.4,-5.1,25.60,North,0,0.0,0.0,39,0.00,,---,0.00,VWS V13.01,2013-01-14 22:34:00,
2013-01-14 15:39:00,15.3,-5.2,25.60,North,0,0.0,0.0,39,0.00,,---,0.00,VWS V13.01,2013-01-14 22:39:00,
2013-01-14 15:44:00,15.1,-5.4,25.60,North,0,0.0,0.0,39,0.00,,---,0.00,VWS V13.01,2013-01-14 22:44:00,
2013-01-14 15:49:00,14.9,-5.6,25.60,North,0,0.0,0.0,39,0.00,,---,0.00,VWS V13.01,2013-01-14 22:49:00,
2013-01-14 15:54:00,14.7,-5.2,25.60,North,0,0.0,0.0,40,0.00,,---,0.00,VWS V13.01,2013-01-14 22:54:00,
2013-01-14 15:59:00,14.4,-6.1,25.60,North,0,0.0,0.0,39,0.00,,---,0.00,VWS V13.01,2013-01-14 22:59:00,
2013-01-14 16:04:00,14.0,-5.9,25.60,North,0,0.0,0.0,40,0.00,,---,0.00,VWS V13.01,2013-01-14 23:04:00,
2013-01-14 16:09:00,13.5,-6.3,25.60,North,0,0.0,0.0,40,0.00,,---,0.00,VWS V13.01,2013-01-14 23:09:00,
2013-01-14 16:14:00,13.5,-6.3,25.60,North,0,0.0,0.0,40,0.00,,---,0.00,VWS V13.01,2013-01-14 23:14:00,
2013-01-14 16:19:00,12.9,-6.8,25.60,North,0,0.0,0.0,40,0.00,,---,0.00,VWS V13.01,2013-01-14 23:19:00,
2013-01-14 16:24:00,12.4,-7.3,25.60,North,0,0.0,0.0,40,0.00,,---,0.00,VWS V13.01,2013-01-14 23:24:00,
2013-01-14 16:29:00,12.0,-7.7,25.60,North,0,0.0,0.0,40,0.00,,---,0.00,VWS V13.01,2013-01-14 23:29:00,
2013-01-14 16:34:00,11.7,-8.0,25.60,North,0,0.0,0.0,40,0.00,,---,0.00,VWS V13.01,2013-01-14 23:34:00,
2013-01-14 16:39:00,10.0,-9.5,25.60,North,0,0.0,0.0,40,0.00,,---,0.00,VWS V13.01,2013-01-14 23:39:00,
2013-01-14 16:44:00,8.8,-10.6,25.60,North,0,0.0,0.0,40,0.00,,---,0.00,VWS V13.01,2013-01-14 23:44:00,
2013-01-14 16:49:00,7.9,-11.4,25.60,North,0,0.0,0.0,40,0.00,,---,0.00,VWS V13.01,2013-01-14 23:49:00,
2013-01-14 16:54:00,8.1,-11.2,25.60,North,0,0.0,0.0,40,0.00,,---,0.00,VWS V13.01,2013-01-14 23:54:00,
2013-01-14 16:59:00,7.5,-11.7,25.60,North,0,0.0,0.0,40,0.00,,---,0.00,VWS V13.01,2013-01-14 23:59:00,
2013-01-14 17:04:00,6.8,-12.4,25.60,North,0,0.0,0.0,40,0.00,,---,0.00,VWS V13.01,2013-01-15 00:04:00,
2013-01-14 17:09:00,6.3,-12.9,25.60,North,0,0.0,0.0,40,0.00,,---,0.00,VWS V13.01,2013-01-15 00:09:00,
2013-01-14 17:14:00,6.3,-12.9,25.60,North,0,0.0,0.0,40,0.00,,---,0.00,VWS V13.01,2013-01-15 00:14:00,
2013-01-14 17:19:00,6.1,-13.1,25.60,North,0,0.0,0.0,40,0.00,,---,0.00,VWS V13.01,2013-01-15 00:19:00,
2013-01-14 17:24:00,5.9,-13.2,25.60,North,0,0.0,0.0,40,0.00,,---,0.00,VWS V13.01,2013-01-15 00:24:00,
2013-01-14 17:29:00,5.5,-13.5,25.60,North,0,0.0,0.0,40,0.00,,---,0.00,VWS V13.01,2013-01-15 00:29:00,
2013-01-14 17:34:00,5.4,-13.7,25.60,North,0,0.0,0.0,40,0.00,,---,0.00,VWS V13.01,2013-01-15 00:34:00,
2013-01-14 17:39:00,5.0,-14.0,25.60,North,0,0.0,0.0,40,0.00,,---,0.00,VWS V13.01,2013-01-15 00:39:00,
2013-01-14 17:44:00,4.3,-14.7,25.60,North,0,0.0,0.0,40,0.00,,---,0.00,VWS V13.01,2013-01-15 00:44:00,
2013-01-14 17:49:00,3.7,-15.2,25.60,North,0,0.0,0.0,40,0.00,,---,0.00,VWS V13.01,2013-01-15 00:49:00,
2013-01-14 17:54:00,3.2,-15.7,25.60,North,0,0.0,0.0,40,0.00,,---,0.00,VWS V13.01,2013-01-15 00:54:00,
2013-01-14 17:59:00,2.8,-16.0,25.60,North,0,0.0,0.0,40,0.00,,---,0.00,VWS V13.01,2013-01-15 00:59:00,
2013-01-14 18:04:00,2.5,-16.3,25.60,North,0,0.0,0.0,40,0.00,,---,0.00,VWS V13.01,2013-01-15 01:04:00,
2013-01-14 18:09:00,2.5,-16.3,25.60,North,0,0.0,0.0,40,0.00,,---,0.00,VWS V13.01,2013-01-15 01:09:00,
2013-01-14 18:14:00,1.9,-16.8,25.60,North,0,0.0,0.0,40,0.00,,---,0.00,VWS V13.01,2013-01-15 01:14:00,
2013-01-14 18:19:00,1.9,-16.8,25.60,North,0,0.0,0.0,40,0.00,,---,0.00,VWS V13.01,2013-01-15 01:19:00,
2013-01-14 18:24:00,1.8,-17.0,25.60,North,0,0.0,0.0,40,0.00,,---,0.00,VWS V13.01,2013-01-15 01:24:00,
2013-01-14 18:29:00,1.2,-17.5,25.60,North,0,0.0,0.0,40,0.00,,---,0.00,VWS V13.01,2013-01-15 01:29:00,
2013-01-14 18:34:00,0.7,-18.0,25.60,North,0,0.0,0.0,40,0.00,,---,0.00,VWS V13.01,2013-01-15 01:34:00,
2013-01-14 18:39:00,0.7,-18.0,25.60,North,0,0.0,0.0,40,0.00,,---,0.00,VWS V13.01,2013-01-15 01:39:00,
2013-01-14 18:44:00,0.1,-18.5,25.60,North,0,0.0,0.0,40,0.00,,---,0.00,VWS V13.01,2013-01-15 01:44:00,
2013-01-14 18:49:00,0.1,-18.5,25.60,North,0,0.0,0.0,40,0.00,,---,0.00,VWS V13.01,2013-01-15 01:49:00,
2013-01-14 18:54:00,0.1,-18.5,25.60,North,0,0.0,0.0,40,0.00,,---,0.00,VWS V13.01,2013-01-15 01:54:00,
2013-01-14 18:59:00,0.3,-18.3,25.60,North,0,0.0,0.0,40,0.00,,---,0.00,VWS V13.01,2013-01-15 01:59:00,
2013-01-14 19:04:00,0.3,-18.3,25.60,North,0,0.0,0.0,40,0.00,,---,0.00,VWS V13.01,2013-01-15 02:04:00,
2013-01-14 19:09:00,2.7,-16.2,25.60,North,0,0.0,0.0,40,0.00,,---,0.00,VWS V13.01,2013-01-15 02:09:00,
2013-01-14 19:14:00,5.0,-14.0,25.60,North,0,0.0,0.0,40,0.00,,---,0.00,VWS V13.01,2013-01-15 02:14:00,
2013-01-14 19:19:00,5.5,-13.5,25.60,North,0,0.0,0.0,40,0.00,,---,0.00,VWS V13.01,2013-01-15 02:19:00,
2013-01-14 19:24:00,6.4,-12.7,25.60,North,0,0.0,0.0,40,0.00,,---,0.00,VWS V13.01,2013-01-15 02:24:00,
2013-01-14 19:29:00,6.8,-12.4,25.60,North,0,0.0,0.0,40,0.00,,---,0.00,VWS V13.01,2013-01-15 02:29:00,
2013-01-14 19:34:00,7.9,-11.4,25.60,North,0,0.0,0.0,40,0.00,,---,0.00,VWS V13.01,2013-01-15 02:34:00,
2013-01-14 19:39:00,7.9,-11.4,25.60,North,0,0.0,0.0,40,0.00,,---,0.00,VWS V13.01,2013-01-15 02:39:00,
2013-01-14 19:44:00,8.2,-11.1,25.60,North,0,0.0,0.0,40,0.00,,---,0.00,VWS V13.01,2013-01-15 02:44:00,
2013-01-14 19:49:00,7.9,-11.4,25.60,North,0,0.0,0.0,40,0.00,,---,0.00,VWS V13.01,2013-01-15 02:49:00,
2013-01-14 19:54:00,7.9,-11.4,25.60,North,0,0.0,0.0,40,0.00,,---,0.00,VWS V13.01,2013-01-15 02:54:00,
2013-01-14 19:59:00,7.7,-11.6,25.60,North,0,0.0,0.0,40,0.00,,---,0.00,VWS V13.01,2013-01-15 02:59:00,
2013-01-14 20:04:00,7.7,-11.6,25.60,North,0,0.0,0.0,40,0.00,,---,0.00,VWS V13.01,2013-01-15 03:04:00,
2013-01-14 20:09:00,7.7,-11.6,25.60,North,0,0.0,0.0,40,0.00,,---,0.00,VWS V13.01,2013-01-15 03:09:00,
2013-01-14 20:14:00,7.9,-11.4,25.60,North,0,0.0,0.0,40,0.00,,---,0.00,VWS V13.01,2013-01-15 03:14:00,
2013-01-14 20:19:00,7.7,-11.6,25.60,North,0,0.0,0.0,40,0.00,,---,0.00,VWS V13.01,2013-01-15 03:19:00,
2013-01-14 20:24:00,7.7,-11.6,25.60,North,0,0.0,0.0,40,0.00,,---,0.00,VWS V13.01,2013-01-15 03:24:00,
2013-01-14 20:29:00,7.7,-11.6,25.60,North,0,0.0,0.0,40,0.00,,---,0.00,VWS V13.01,2013-01-15 03:29:00,
2013-01-14 20:34:00,7.9,-11.4,25.57,North,0,0.0,0.0,40,0.00,,---,0.00,VWS V13.01,2013-01-15 03:34:00,
2013-01-14 20:39:00,7.9,-11.4,25.57,North,0,0.0,0.0,40,0.00,,---,0.00,VWS V13.01,2013-01-15 03:39:00,
2013-01-14 20:44:00,7.7,-11.6,25.57,North,0,0.0,0.0,40,0.00,,---,0.00,VWS V13.01,2013-01-15 03:44:00,
2013-01-14 20:49:00,7.5,-11.7,25.57,North,0,0.0,0.0,40,0.00,,---,0.00,VWS V13.01,2013-01-15 03:49:00,
2013-01-14 20:54:00,7.5,-11.7,25.57,North,0,0.0,0.0,40,0.00,,---,0.00,VWS V13.01,2013-01-15 03:54:00,
2013-01-14 20:59:00,7.7,-11.6,25.57,North,0,0.0,0.0,40,0.00,,---,0.00,VWS V13.01,2013-01-15 03:59:00,
2013-01-14 21:04:00,7.9,-11.4,25.57,North,0,0.0,0.0,40,0.00,,---,0.00,VWS V13.01,2013-01-15 04:04:00,
2013-01-14 21:09:00,7.7,-11.6,25.57,North,0,0.0,0.0,40,0.00,,---,0.00,VWS V13.01,2013-01-15 04:09:00,
2013-01-14 21:14:00,7.5,-11.7,25.57,North,0,0.0,0.0,40,0.00,,---,0.00,VWS V13.01,2013-01-15 04:14:00,
2013-01-14 21:19:00,7.7,-11.6,25.57,North,0,0.0,0.0,40,0.00,,---,0.00,VWS V13.01,2013-01-15 04:19:00,
2013-01-14 21:24:00,7.5,-11.7,25.57,North,0,0.0,0.0,40,0.00,,---,0.00,VWS V13.01,2013-01-15 04:24:00,
2013-01-14 21:29:00,7.5,-11.7,25.57,North,0,0.0,0.0,40,0.00,,---,0.00,VWS V13.01,2013-01-15 04:29:00,
2013-01-14 21:34:00,7.7,-11.6,25.57,North,0,0.0,0.0,40,0.00,,---,0.00,VWS V13.01,2013-01-15 04:34:00,
2013-01-14 21:39:00,7.7,-11.6,25.57,North,0,0.0,0.0,40,0.00,,---,0.00,VWS V13.01,2013-01-15 04:39:00,
2013-01-14 21:44:00,7.3,-11.9,25.57,North,0,0.0,0.0,40,0.00,,---,0.00,VWS V13.01,2013-01-15 04:44:00,
2013-01-14 21:49:00,7.0,-12.2,25.57,North,0,0.0,0.0,40,0.00,,---,0.00,VWS V13.01,2013-01-15 04:49:00,
2013-01-14 21:54:00,7.2,-12.1,25.57,North,0,0.0,0.0,40,0.00,,---,0.00,VWS V13.01,2013-01-15 04:54:00,
2013-01-14 21:59:00,7.2,-12.1,25.57,North,0,0.0,0.0,40,0.00,,---,0.00,VWS V13.01,2013-01-15 04:59:00,
2013-01-14 22:00:00,7.2,-12.1,25.57,North,0,0.0,0.0,40,0.00,,---,0.00,VWS V13.01,2013-01-15 05:00:00,
2013-01-14 22:01:00,7.2,-12.1,25.57,North,0,0.0,0.0,40,0.00,,---,0.00,VWS V13.01,2013-01-15 05:01:00,
2013-01-14 22:02:00,7.0,-12.2,25.57,North,0,0.0,0.0,40,0.00,,---,0.00,VWS V13.01,2013-01-15 05:02:00,
2013-01-14 22:07:00,6.8,-12.4,25.57,North,0,0.0,0.0,40,0.00,,---,0.00,VWS V13.01,2013-01-15 05:07:00,
2013-01-14 22:12:00,6.8,-12.4,25.57,North,0,0.0,0.0,40,0.00,,---,0.00,VWS V13.01,2013-01-15 05:12:00,
2013-01-14 22:17:00,7.2,-12.1,25.57,North,0,0.0,0.0,40,0.00,,---,0.00,VWS V13.01,2013-01-15 05:17:00,
2013-01-14 22:22:00,7.2,-12.1,25.57,North,0,0.0,0.0,40,0.00,,---,0.00,VWS V13.01,2013-01-15 05:22:00,
2013-01-14 22:27:00,7.3,-11.9,25.57,North,0,0.0,0.0,40,0.00,,---,0.00,VWS V13.01,2013-01-15 05:27:00,
2013-01-14 22:32:00,7.3,-11.9,25.57,North,0,0.0,0.0,40,0.00,,---,0.00,VWS V13.01,2013-01-15 05:32:00,
2013-01-14 22:37:00,7.3,-11.9,25.57,North,0,0.0,0.0,40,0.00,,---,0.00,VWS V13.01,2013-01-15 05:37:00,
2013-01-14 22:42:00,7.2,-12.1,25.57,North,0,0.0,0.0,40,0.00,,---,0.00,VWS V13.01,2013-01-15 05:42:00,
2013-01-14 22:47:00,6.8,-12.4,25.57,North,0,0.0,0.0,40,0.00,,---,0.00,VWS V13.01,2013-01-15 05:47:00,
2013-01-14 22:52:00,6.3,-12.9,25.57,North,0,0.0,0.0,40,0.00,,---,0.00,VWS V13.01,2013-01-15 05:52:00,
2013-01-14 22:57:00,5.9,-13.2,25.57,North,0,0.0,0.0,40,0.00,,---,0.00,VWS V13.01,2013-01-15 05:57:00,
2013-01-14 23:02:00,5.5,-13.5,25.57,North,0,0.0,0.0,40,0.00,,---,0.00,VWS V13.01,2013-01-15 06:02:00,
2013-01-14 23:07:00,5.4,-13.7,25.57,North,0,0.0,0.0,40,0.00,,---,0.00,VWS V13.01,2013-01-15 06:07:00,
2013-01-14 23:12:00,5.4,-13.7,25.57,North,0,0.0,0.0,40,0.00,,---,0.00,VWS V13.01,2013-01-15 06:12:00,
2013-01-14 23:17:00,5.4,-13.7,25.57,North,0,0.0,0.0,40,0.00,,---,0.00,VWS V13.01,2013-01-15 06:17:00,
2013-01-14 23:22:00,5.4,-13.7,25.57,North,0,0.0,0.0,40,0.00,,---,0.00,VWS V13.01,2013-01-15 06:22:00,
2013-01-14 23:27:00,5.4,-13.7,25.57,North,0,0.0,0.0,40,0.00,,---,0.00,VWS V13.01,2013-01-15 06:27:00,
2013-01-14 23:32:00,5.2,-13.9,25.57,North,0,0.0,0.0,40,0.00,,---,0.00,VWS V13.01,2013-01-15 06:32:00,
2013-01-14 23:37:00,5.0,-14.0,25.57,North,0,0.0,0.0,40,0.00,,---,0.00,VWS V13.01,2013-01-15 06:37:00,
2013-01-14 23:42:00,4.6,-14.4,25.57,North,0,0.0,0.0,40,0.00,,---,0.00,VWS V13.01,2013-01-15 06:42:00,
2013-01-14 23:47:00,4.6,-14.4,25.57,North,0,0.0,0.0,40,0.00,,---,0.00,VWS V13.01,2013-01-15 06:47:00,
2013-01-14 23:52:00,5.0,-14.0,25.57,North,0,0.0,0.0,40,0.00,,---,0.00,VWS V13.01,2013-01-15 06:52:00,
2013-01-14 23:57:00,5.0,-14.0,25.57,North,0,0.0,0.0,40,0.00,,---,0.00,VWS V13.01,2013-01-15 06:57:00,